User: anonymous   Login
Location: Balaclava NSW 2575, Australia
(34.4510°S, 150.4953°E)
Time: 06:27:36
(UTC+10:00)
Language:

XW-2F - Orbit

View from above orbital plane
View from above orbital plane
View from above satellite
View from above satellite

Ground track
Ground track

The orbit data is extracted from the following two-line orbital elements,

1 40910U 15049M   21204.54787610  .00001749  00000-0  86250-4 0  9996
2 40910  97.4715 209.3918 0015606  48.7610  68.5609 15.19170164323204
Epoch (UTC): 23 July 2021 13:08:56
Eccentricity: 0.0015606
inclination: 97.4715°
perigee height: 497 km
apogee height: 519 km
right ascension of ascending node: 209.3918°
argument of perigee: 48.7610°
revolutions per day: 15.19170164
mean anomaly at epoch: 68.5609°
orbit number at epoch: 32320

The dashed part of the orbit path shows where the satellite is in the earth's shadow,  

DLR